Temp_Advection
nan nan nan nan nan nan nan nan nan nan nan nan nan nan nan nan nan nan nan nan nan nan nan nan nan nan nan nan nan nan nan nan nan nan nan nan nan nan nan nan nan nan nan nan nan nan nan
nan 0 -0 -0 0 0 0 -0 -0 -0 0 0 0 -0 -0 -0 -0 -0 -0 -0 -0 -0 -0 -0 -0 0 0 -0 -0 -0 -0 -0 -0 0 0 0 -0 -0 -0 -0 -0 -0 -0 -1 -0 0 nan
nan -0 -0 -0 -0 -0 -0 0 0 0 0 0 -0 -0 -0 -0 -0 -0 -0 -0 -0 -0 -0 -0 -0 0 0 0 -0 0 0 0 0 0 0 0 -0 0 0 -0 -0 0 0 -0 -0 0 nan
nan -0 -0 -0 -0 -0 -0 -0 -0 -0 -0 -0 -0 -0 -0 -0 -0 -0 -0 -0 -0 -0 -0 -0 -0 -0 -0 -0 -0 -0 0 0 0 0 0 0 0 0 0 -0 -0 -0 -0 0 -0 0 nan
nan -0 -0 -0 -0 -0 -0 -0 -0 -0 -0 -0 -0 -0 -0 -0 -0 -0 -0 -0 -0 -0 -0 -0 -0 -0 -0 -0 -0 -0 -0 -0 -0 0 -0 0 0 -0 -0 -0 -0 0 -0 -0 -0 -0 nan
nan -0 -0 -0 -0 -0 -0 -0 -0 -0 -0 -0 -0 -0 -0 -0 -0 -0 -0 -0 -0 -0 -0 -0 -0 -0 -0 -0 -0 -0 -0 -0 -0 -0 0 0 -0 -0 -0 0 -0 -0 0 -0 -0 -0 nan
nan -0 -0 -0 -0 -0 -0 -0 -0 -0 -0 -0 -0 -0 -0 -0 -0 -0 -0 0 0 -0 -0 -0 -0 -0 -0 -0 -0 -0 -0 0 0 -0 0 -0 -0 -0 -0 -0 -0 -0 0 0 0 -0 nan
nan 0 -0 -0 -0 -0 -0 -0 -0 -0 -0 -0 -0 -0 -0 -0 -0 -0 -0 -0 -0 -0 -0 0 0 -0 -0 0 -0 -0 0 -0 -0 -0 -0 -0 -0 -0 -0 -0 0 0 0 0 -0 -0 nan
nan -0 -0 0 -0 -0 -0 -0 -0 -0 -0 -0 -0 -0 -0 -0 -0 -0 -0 -0 -0 -0 -0 0 0 0 0 -0 -0 -0 -0 -0 -0 -0 -0 -0 -0 -0 0 0 0 0 0 0 0 -0 nan
nan -0 -0 -0 -0 -0 -0 -0 -0 -0 -0 -0 -0 -0 -0 -0 -0 -0 -0 -0 -0 -0 -0 -0 0 0 0 -0 0 -0 -0 -0 -0 -0 0 -0 -0 -0 -0 0 0 0 0 0 0 -0 nan
nan -0 -0 -0 -0 -0 -0 -0 -0 -0 -0 -0 -0 -0 -0 -0 -0 -0 -0 -0 -0 -0 0 -0 0 0 0 0 -0 -0 -0 -0 -0 -0 0 -0 0 -0 -0 0 0 0 -0 -0 0 0 nan
nan -0 0 -0 -0 -0 -0 -0 -0 -0 -0 -0 -0 -0 -0 -0 -0 -0 -0 -0 -0 -1 -0 -0 0 0 -0 0 0 -0 -0 -0 -0 -0 -0 -0 -0 0 0 0 0 -0 -0 -0 -0 -0 nan
nan -0 -0 -0 -0 -0 -0 -0 -0 -0 -0 -0 -0 -0 -0 -0 -0 0 0 -0 -0 0 0 0 0 0 -0 0 0 -0 -1 -1 -0 -0 -0 -0 -0 -0 -0 -0 -0 -0 -0 -0 0 -0 nan
nan -0 -0 -0 -0 -0 -0 -0 -0 -0 -0 -0 -0 -0 -0 -0 -0 0 0 -0 -0 -0 0 0 0 0 0 0 0 -0 -0 -0 -0 -0 -0 0 -0 -0 -0 -0 0 -0 -0 -0 0 0 nan
nan -0 0 0 -0 -0 -0 -0 -0 -0 -0 -0 -0 -0 0 0 0 0 -0 -0 0 0 0 0 -0 0 0 0 0 -0 -0 -0 -0 0 0 0 -0 -0 -0 -0 -0 -0 0 0 -0 0 nan
nan -0 -0 0 0 -0 -0 -0 -0 -0 -0 -0 -0 -0 0 0 0 0 -0 -0 0 -0 -0 0 0 0 0 0 0 -0 0 0 -0 -0 0 0 -0 -0 -0 -0 -0 0 -0 -0 -0 0 nan
nan 0 0 0 0 -0 -0 -0 -0 -0 -0 -0 -0 -0 0 0 0 0 0 0 0 0 0 0 0 0 0 0 0 0 -0 -0 0 0 -0 -0 0 -0 -0 -0 -0 -0 -0 -0 0 0 nan
nan 0 0 0 0 -0 -0 -0 -0 -0 -0 -0 0 -0 0 0 -0 -0 0 -0 0 0 -0 0 0 0 0 0 0 0 0 -0 0 0 0 -0 0 -0 -0 -0 -0 0 -0 -0 0 0 nan
nan 1 0 0 -0 -0 -0 -0 -0 -0 0 -0 0 0 0 0 0 0 0 -0 0 0 -0 -0 0 -0 -0 0 0 -0 0 0 0 -0 0 -0 0 -0 -0 0 -0 -0 0 -0 -0 0 nan
nan 1 1 0 -0 -0 -0 -0 -0 -0 0 0 0 -0 0 0 0 -0 -0 0 0 0 0 -0 0 0 0 0 -0 -0 -0 0 0 0 0 -0 0 -0 0 -0 0 0 0 0 0 -0 nan
nan 0 0 1 0 -0 0 -0 -0 -0 0 0 0 0 0 0 0 -0 -0 -0 0 0 0 0 -0 -0 0 0 0 0 -0 0 0 0 0 0 0 0 -0 -0 -0 -0 0 0 0 0 nan
nan 1 0 0 0 1 1 -0 -0 -0 0 0 0 -0 -0 0 0 0 0 0 -0 0 0 0 0 0 0 0 0 0 -0 0 0 0 0 0 0 -0 -0 -0 0 -0 0 0 -0 -0 nan
nan 1 1 0 0 0 0 -0 -0 -0 0 0 0 -0 -0 -0 0 0 0 0 0 -0 -0 -0 0 0 0 -0 -0 -0 -0 -0 -0 0 0 0 0 -0 -0 -0 -0 0 0 -0 -0 -0 nan
nan 2 1 0 0 0 0 -0 -0 -0 0 0 0 0 0 0 0 0 0 -0 0 0 0 0 0 -0 -0 0 -0 0 0 0 0 0 0 -0 0 0 0 -0 0 0 -0 0 0 -0 nan
nan 1 1 -0 0 0 0 -0 -0 -0 0 0 0 0 -0 -0 0 0 -0 0 0 -0 -0 -0 -0 0 0 -0 -0 -0 -0 -0 0 0 0 0 -0 0 0 0 0 0 0 -0 -0 0 nan
nan 1 0 0 0 0 0 -0 0 0 0 0 0 0 0 -2 0 0 0 -0 -0 0 -0 0 0 0 0 0 -0 0 0 0 0 -0 -0 -0 -0 -0 -0 -0 0 0 -0 0 -0 0 nan
nan 1 0 0 -0 1 0 0 0 0 0 0 0 0 0 -2 -0 0 -0 0 -0 -0 0 0 0 0 -0 0 0 0 0 0 0 0 0 -0 0 0 -0 0 0 -0 -0 0 -0 0 nan
nan 0 0 0 0 1 0 0 0 0 0 0 0 1 0 -2 0 0 0 0 0 -0 -0 0 0 -0 -0 0 0 0 0 -0 0 -0 0 0 0 0 0 -0 -0 -0 -0 0 0 -0 nan
nan nan nan nan nan nan nan nan nan nan nan nan nan nan nan nan nan nan nan nan nan nan nan nan nan nan nan nan nan nan nan nan nan nan nan nan nan nan nan nan nan nan nan nan nan nan nan
Wind_Speed
3 3 3 4 6 6 6 6 7 7 8 8 9 10 10 10 10 11 11 11 10 9 9 8 6 4 1 1 2 1 1 1 1 1 1 0 2 2 0 3 2 1 3 5 4 5 5
2 1 3 5 6 7 8 8 8 8 9 9 10 11 11 11 11 12 12 11 11 10 9 7 5 2 2 2 1 1 1 1 1 1 1 1 1 1 2 2 0 3 6 13 11 10 5
1 2 3 5 7 8 8 9 9 9 10 10 10 11 11 12 13 13 13 13 12 10 8 5 2 2 3 3 1 1 2 2 1 1 0 1 1 1 2 3 5 4 6 7 4 4 3
3 4 5 6 7 8 8 8 8 8 9 9 10 10 12 13 14 15 15 13 11 8 6 4 2 3 4 3 2 1 0 1 2 2 1 0 0 1 0 3 4 5 3 5 4 6 1
3 5 7 8 8 8 9 10 9 9 8 9 10 11 12 13 13 13 12 12 8 6 5 4 3 3 2 4 3 3 1 1 1 1 1 1 1 1 1 3 4 5 2 2 7 3 3
3 4 6 8 10 10 9 9 9 9 9 9 10 11 11 12 13 12 10 6 3 4 3 4 5 3 2 2 3 3 3 2 1 2 1 2 2 3 3 4 3 1 2 3 4 1 2
5 4 5 6 6 8 10 10 10 9 9 9 10 11 12 12 12 11 9 3 1 1 7 4 2 2 0 1 4 4 3 1 1 1 2 1 3 3 6 6 5 3 4 5 4 4 4
8 7 5 6 7 8 8 9 8 8 8 9 10 10 11 12 12 9 8 3 3 2 3 5 4 4 4 3 2 5 4 1 1 1 2 5 1 3 3 1 1 2 3 5 6 2 4
8 8 9 8 7 7 8 8 8 9 8 9 10 11 12 11 8 8 7 5 3 2 3 2 2 2 1 2 2 5 4 1 2 2 3 3 3 2 1 1 1 3 4 3 4 6 1
9 8 9 9 9 9 9 8 7 8 9 10 11 11 11 11 4 9 4 5 2 1 4 2 1 0 1 2 1 4 4 3 3 1 3 4 3 0 2 1 2 3 2 1 2 4 2
10 9 9 9 9 9 10 10 9 8 8 9 10 10 11 9 7 5 5 3 2 2 4 1 2 1 1 2 2 1 5 2 2 1 4 5 2 1 2 3 2 6 2 2 2 4 2
11 10 10 9 9 9 9 9 9 9 8 9 9 10 9 9 6 6 4 2 2 6 5 1 1 1 1 1 1 1 1 3 2 1 1 4 5 2 3 1 3 4 3 2 4 3 2
11 10 11 11 11 9 9 8 8 8 8 9 9 9 8 7 6 5 2 1 5 4 0 2 2 1 1 1 0 2 5 6 3 4 4 6 1 2 1 3 2 5 5 4 4 2 5
12 11 12 12 11 10 10 9 8 9 8 8 8 8 8 6 5 3 1 4 2 3 3 0 1 0 3 3 1 3 3 2 4 3 2 2 4 3 3 1 0 1 4 4 5 3 4
16 13 12 13 12 11 10 9 9 9 9 8 8 8 6 5 5 3 2 3 5 4 1 1 2 1 2 1 2 4 2 3 1 3 3 2 5 4 2 2 2 1 2 2 1 3 2
18 17 13 13 13 11 9 9 8 8 9 8 8 8 5 2 3 4 3 5 3 1 1 1 5 3 3 3 2 4 5 1 3 1 1 2 4 1 4 2 6 1 1 2 1 4 6
22 20 17 14 12 11 10 9 8 7 7 8 7 3 3 2 4 2 3 5 2 1 2 3 4 2 2 4 3 3 2 1 2 1 2 1 2 4 2 4 1 4 0 3 1 3 4
25 23 19 16 13 12 10 9 8 6 6 7 3 1 3 4 2 2 2 1 2 2 1 1 2 1 4 4 2 4 5 1 3 2 3 1 3 4 6 4 3 3 2 2 3 3 1
27 24 21 17 15 13 11 10 9 6 6 4 3 3 5 8 2 2 1 2 3 1 2 1 1 1 1 3 3 3 3 2 4 3 4 1 1 3 2 3 2 5 2 3 1 2 5
29 25 21 18 15 14 10 9 10 7 7 7 3 1 3 6 3 6 5 4 3 2 1 1 1 1 1 3 2 4 3 3 3 4 5 2 2 5 5 1 1 4 3 3 4 2 5
28 25 22 21 19 18 14 11 12 8 8 9 6 4 5 2 3 4 5 6 4 4 2 2 1 3 3 4 3 5 4 3 1 4 4 4 4 2 3 5 4 5 5 7 6 9 6
31 28 25 24 22 17 16 16 12 8 10 14 4 4 4 3 3 5 2 6 8 3 5 3 3 3 2 3 2 3 4 4 5 3 4 2 1 1 3 8 6 8 8 6 7 7 3
35 33 29 25 19 14 14 16 11 9 12 12 12 8 4 2 3 4 3 3 4 10 2 4 2 4 2 2 2 3 2 3 6 6 5 5 3 1 3 2 5 7 2 1 0 3 1
42 36 30 21 15 14 13 14 11 11 15 16 10 9 6 2 3 2 3 3 5 2 5 3 7 4 2 1 2 2 2 4 4 5 7 4 4 3 3 2 2 2 2 3 3 1 3
43 35 27 19 14 14 14 10 11 11 14 18 14 10 6 3 7 6 7 8 13 10 4 4 4 5 3 2 1 1 2 2 2 5 7 7 3 1 2 2 3 1 3 2 3 4 2
44 33 26 18 13 12 11 10 9 10 12 15 16 15 6 14 0 5 7 7 4 3 2 3 4 4 3 2 1 3 4 4 2 1 2 4 3 3 2 2 4 4 1 6 5 4 5
45 33 23 18 11 13 10 11 9 10 11 12 14 16 9 10 6 7 3 4 5 5 3 3 2 2 3 2 2 2 3 2 3 4 4 2 1 5 6 5 2 1 7 2 4 5 10
41 29 23 19 13 17 13 10 9 8 11 12 12 15 7 10 13 7 6 5 6 6 3 6 4 1 2 1 1 2 1 2 1 1 1 4 3 3 2 1 5 3 0 1 3 10 15
34 29 22 17 17 15 14 12 10 8 11 11 13 12 9 12 19 21 20 14 9 6 12 5 3 3 3 3 1 1 0 1 1 2 3 1 2 2 1 1 5 8 12 4 6 11 16
Wind_Direction
79 44 13 358 357 356 356 358 357 358 359 357 354 354 355 354 353 351 350 346 344 335 328 332 328 318 164 112 94 18 203 243 258 272 286 148 84 1 345 338 328 181 306 317 289 281 267
103 48 348 346 345 347 350 352 355 358 1 360 357 356 353 351 349 345 342 340 335 329 325 329 316 263 172 134 342 334 286 298 276 235 200 149 114 19 318 304 346 319 295 286 288 269 233
294 317 330 337 341 345 346 351 354 356 358 359 357 355 351 346 343 343 342 336 331 330 328 324 297 168 128 139 342 138 150 102 123 187 132 113 277 188 330 340 338 310 319 322 275 235 192
305 304 317 334 341 342 343 346 350 351 353 353 352 350 348 349 346 346 345 341 341 348 355 25 89 102 85 73 81 24 70 115 93 95 123 112 220 207 246 319 356 357 45 355 311 133 126
297 312 323 332 338 340 344 343 344 346 347 348 348 348 350 348 348 349 350 346 349 22 47 70 86 108 89 66 32 47 38 356 355 135 348 214 144 82 48 82 16 8 254 240 314 142 106
289 301 322 336 337 337 341 341 341 343 344 347 349 348 348 349 348 349 349 347 24 57 75 80 67 93 81 30 0 349 333 313 296 324 111 105 86 75 36 69 229 240 305 278 259 280 139
292 297 309 325 333 334 340 342 343 343 344 347 346 348 348 347 348 351 354 345 312 7 50 70 44 70 45 356 46 21 24 93 111 108 146 95 86 190 208 200 208 226 215 250 242 237 190
289 295 301 314 324 332 334 336 338 337 338 341 342 343 345 347 346 356 0 36 43 107 68 73 78 65 69 70 33 26 23 358 65 117 110 23 252 223 214 135 257 229 244 261 286 13 153
291 297 303 308 315 321 327 329 331 332 334 337 341 343 344 346 345 355 16 37 52 85 86 56 83 47 60 47 38 2 11 34 37 48 16 184 219 195 169 234 253 236 217 252 242 331 305
282 288 294 305 313 317 321 323 325 330 333 336 337 340 345 347 349 350 12 6 27 103 75 282 176 97 103 141 44 44 15 27 16 27 324 247 310 290 8 257 148 279 151 171 274 42 218
274 277 287 296 305 311 318 320 322 324 326 328 333 340 341 348 342 354 340 2 42 98 17 228 217 184 109 174 138 55 42 84 119 261 86 253 176 10 310 244 156 238 350 291 228 224 96
277 278 281 286 295 303 310 312 312 314 319 322 327 332 337 338 340 342 342 24 108 45 263 201 120 234 351 178 155 102 22 39 87 329 334 254 305 281 231 281 278 310 333 328 42 105 290
280 277 276 280 286 290 294 296 295 301 310 315 320 321 324 323 326 328 324 110 36 131 134 187 188 98 352 185 156 68 33 16 40 41 355 333 340 323 347 318 22 63 46 329 331 356 235
276 280 277 276 280 287 292 295 292 294 297 306 312 312 315 307 311 308 246 53 183 222 196 197 183 229 216 176 250 51 102 104 33 72 119 141 310 4 352 101 238 345 161 169 259 233 264
273 274 278 276 279 285 290 291 289 291 294 302 305 303 299 279 277 221 144 73 221 201 155 89 354 193 257 253 188 83 28 160 102 41 163 169 269 319 32 351 73 23 174 146 317 254 314
263 269 271 277 278 283 288 287 283 288 295 302 303 299 278 254 198 174 92 233 219 64 39 140 213 163 229 202 188 174 185 202 154 117 176 193 299 4 305 67 43 120 74 66 40 257 242
257 262 268 272 273 275 278 278 275 279 289 296 300 289 209 210 179 190 177 216 168 153 171 167 203 207 210 195 184 217 172 339 138 168 41 64 121 284 318 32 44 340 70 51 254 181 237
258 259 258 266 267 266 268 269 259 263 279 284 262 350 186 179 125 32 167 329 116 151 40 151 117 161 192 170 204 197 203 30 133 96 144 17 141 261 258 313 10 102 113 115 156 244 270
255 256 258 259 258 265 265 265 254 245 246 250 240 207 207 185 181 196 203 60 80 87 360 345 144 13 308 180 202 125 129 126 120 84 139 162 220 330 351 297 18 74 76 112 162 136 204
250 253 249 253 250 251 254 258 258 245 239 215 238 39 184 190 181 143 161 202 177 109 126 62 130 55 135 197 35 164 143 188 148 125 135 128 196 210 224 75 134 263 204 229 187 160 253
243 245 247 248 238 235 236 252 259 248 239 209 214 228 176 210 227 168 157 138 147 189 148 154 339 236 194 200 175 196 138 137 155 160 137 141 218 233 275 275 259 248 254 253 247 248 218
242 245 244 253 259 267 248 248 254 245 229 213 214 189 164 139 144 125 158 212 169 156 152 210 207 170 199 218 295 190 129 175 192 167 156 169 252 69 264 259 255 279 269 269 278 296 256
244 244 239 245 258 264 251 245 246 243 221 210 215 214 181 117 118 115 221 158 179 137 98 53 182 123 127 104 71 81 73 106 151 162 178 154 181 116 263 335 334 288 261 327 320 70 327
244 240 234 238 256 247 233 236 238 237 225 217 212 192 182 178 121 182 129 103 127 116 137 90 100 104 124 157 294 263 268 258 232 217 185 153 151 163 255 335 243 272 130 136 129 90 325
243 235 226 232 237 233 248 222 233 230 220 218 217 196 175 108 121 100 111 114 99 86 80 80 64 114 146 121 67 331 352 349 262 216 201 193 135 233 218 199 309 260 331 77 99 275 260
240 231 221 225 232 242 213 232 235 227 216 210 212 205 180 127 130 142 117 145 131 109 60 80 98 109 110 87 169 221 230 225 247 320 166 110 99 146 125 186 258 220 279 0 137 282 17
233 220 209 209 224 225 219 221 212 204 195 188 195 193 173 105 57 132 121 168 139 122 112 139 151 94 85 106 217 219 254 219 223 187 196 153 165 203 232 251 269 197 322 332 76 256 336
226 210 204 207 223 202 206 206 202 185 190 192 186 185 179 105 75 106 129 140 138 150 139 148 103 84 70 113 212 246 170 249 116 8 245 187 184 203 79 24 272 356 76 213 306 322 328
215 201 201 198 182 193 190 190 184 182 189 191 167 171 167 99 105 95 92 84 81 126 126 117 113 108 129 91 241 73 229 34 98 245 357 257 185 163 175 217 75 84 105 31 337 323 327
Height
1550 1550 1550 1549 1549 1548 1547 1545 1545 1544 1543 1541 1540 1538 1537 1536 1534 1533 1531 1529 1528 1527 1526 1525 1524 1524 1524 1525 1526 1525 1525 1525 1525 1526 1525 1525 1525 1526 1526 1526 1525 1526 1524 1524 1523 1523 1523
1550 1549 1549 1549 1549 1548 1547 1546 1545 1543 1542 1541 1540 1538 1537 1535 1534 1532 1530 1528 1527 1526 1524 1523 1523 1523 1524 1526 1526 1525 1525 1525 1525 1525 1525 1525 1525 1525 1526 1526 1527 1526 1525 1523 1520 1520 1522
1550 1549 1549 1548 1548 1548 1546 1546 1544 1544 1542 1541 1539 1538 1536 1535 1533 1531 1529 1527 1526 1524 1523 1522 1522 1523 1523 1526 1525 1525 1525 1525 1525 1525 1526 1525 1526 1526 1526 1526 1526 1525 1526 1521 1518 1518 1520
1550 1549 1549 1549 1548 1547 1546 1545 1543 1542 1541 1540 1539 1537 1536 1534 1532 1531 1529 1527 1525 1523 1522 1522 1522 1523 1525 1526 1526 1526 1525 1525 1525 1525 1525 1525 1525 1525 1525 1527 1526 1528 1529 1533 1519 1519 1522
1549 1548 1548 1548 1547 1547 1546 1545 1543 1542 1540 1539 1538 1537 1535 1533 1532 1530 1528 1526 1524 1523 1522 1522 1523 1523 1526 1527 1527 1527 1526 1526 1526 1526 1525 1524 1525 1525 1526 1529 1535 1534 1538 1533 1526 1521 1523
1547 1547 1547 1547 1547 1546 1545 1544 1543 1541 1540 1539 1537 1536 1534 1532 1531 1529 1527 1524 1524 1523 1522 1523 1523 1526 1527 1528 1526 1526 1526 1526 1525 1525 1525 1524 1524 1527 1530 1534 1543 1533 1535 1530 1529 1523 1523
1545 1546 1545 1544 1545 1545 1544 1543 1542 1541 1540 1538 1537 1535 1534 1532 1529 1528 1527 1525 1527 1525 1523 1524 1525 1525 1526 1526 1526 1525 1525 1525 1525 1524 1525 1523 1528 1530 1526 1526 1525 1528 1529 1530 1525 1521 1525
1545 1545 1544 1544 1543 1543 1542 1541 1540 1539 1538 1537 1536 1535 1533 1531 1529 1527 1525 1524 1525 1527 1527 1526 1526 1527 1527 1527 1526 1526 1526 1527 1524 1525 1525 1530 1530 1524 1522 1522 1523 1525 1528 1531 1524 1521 1523
1544 1544 1544 1543 1542 1541 1541 1540 1539 1539 1537 1536 1535 1534 1533 1531 1529 1528 1525 1524 1524 1525 1526 1528 1527 1526 1527 1528 1528 1527 1527 1525 1526 1526 1529 1531 1523 1520 1520 1521 1522 1523 1524 1525 1526 1524 1520
1541 1541 1541 1542 1541 1541 1540 1538 1537 1536 1536 1536 1535 1534 1533 1531 1531 1527 1525 1524 1524 1524 1533 1529 1526 1526 1526 1526 1526 1525 1527 1528 1527 1528 1528 1529 1524 1523 1523 1522 1524 1526 1520 1521 1522 1527 1533
1538 1539 1539 1539 1539 1539 1539 1538 1537 1535 1534 1533 1533 1533 1531 1530 1529 1528 1528 1525 1525 1526 1558 1529 1526 1526 1525 1526 1527 1526 1525 1524 1527 1527 1530 1527 1525 1524 1526 1522 1522 1523 1519 1520 1519 1525 1531
1536 1536 1536 1536 1536 1536 1536 1536 1535 1534 1533 1532 1531 1531 1530 1530 1528 1528 1527 1526 1526 1540 1552 1528 1526 1527 1527 1526 1527 1527 1526 1526 1527 1528 1528 1528 1525 1525 1524 1523 1524 1522 1522 1522 1528 1533 1545
1533 1533 1533 1534 1534 1533 1533 1533 1532 1532 1531 1530 1529 1529 1528 1528 1528 1527 1527 1528 1541 1553 1528 1529 1528 1527 1528 1528 1527 1527 1533 1537 1537 1540 1539 1532 1526 1525 1525 1525 1523 1524 1532 1547 1545 1546 1534
1530 1530 1530 1531 1531 1531 1531 1531 1530 1530 1528 1528 1528 1527 1527 1526 1526 1526 1527 1530 1536 1528 1527 1526 1528 1527 1530 1529 1530 1532 1535 1540 1540 1540 1546 1547 1539 1528 1526 1526 1528 1529 1531 1547 1535 1545 1531
1528 1527 1527 1528 1528 1528 1528 1528 1527 1527 1527 1526 1525 1525 1524 1524 1524 1525 1528 1545 1534 1529 1527 1528 1528 1530 1530 1530 1531 1536 1541 1543 1544 1543 1542 1545 1537 1530 1527 1527 1527 1531 1537 1536 1541 1543 1551
1524 1525 1524 1524 1525 1525 1525 1525 1524 1524 1524 1524 1524 1523 1523 1523 1523 1525 1528 1530 1528 1528 1528 1528 1527 1527 1529 1531 1533 1534 1542 1542 1542 1542 1542 1543 1544 1534 1530 1528 1530 1529 1533 1541 1547 1548 1538
1520 1521 1521 1521 1522 1522 1522 1522 1522 1521 1522 1522 1523 1521 1522 1522 1523 1526 1533 1530 1528 1528 1527 1527 1527 1526 1527 1529 1531 1534 1539 1544 1541 1543 1543 1545 1547 1538 1532 1538 1538 1539 1540 1544 1545 1545 1542
1514 1516 1517 1518 1518 1519 1519 1519 1519 1519 1519 1520 1520 1522 1521 1522 1526 1528 1530 1528 1529 1530 1530 1529 1528 1528 1527 1528 1530 1533 1538 1542 1542 1544 1546 1548 1553 1555 1544 1543 1539 1540 1545 1549 1556 1548 1554
1509 1510 1512 1513 1515 1516 1516 1517 1517 1516 1516 1518 1518 1518 1519 1519 1526 1527 1528 1528 1529 1530 1532 1531 1531 1530 1531 1529 1532 1535 1541 1542 1542 1543 1546 1548 1553 1559 1546 1545 1542 1547 1546 1547 1551 1557 1557
1501 1505 1507 1509 1511 1512 1513 1514 1516 1514 1514 1515 1517 1517 1517 1518 1518 1520 1525 1526 1528 1528 1531 1532 1532 1532 1532 1532 1533 1536 1541 1543 1541 1542 1543 1546 1552 1549 1548 1546 1548 1551 1548 1548 1551 1572 1551
1496 1499 1500 1503 1505 1507 1508 1511 1512 1511 1512 1514 1514 1511 1511 1518 1516 1518 1519 1522 1528 1527 1529 1531 1532 1532 1533 1534 1533 1533 1538 1542 1544 1543 1542 1543 1549 1549 1547 1548 1547 1544 1544 1544 1546 1545 1554
1489 1493 1494 1496 1499 1500 1503 1506 1506 1507 1508 1511 1510 1512 1511 1515 1514 1517 1518 1522 1523 1526 1527 1529 1530 1531 1533 1534 1535 1537 1536 1539 1540 1543 1544 1543 1545 1547 1550 1543 1543 1542 1540 1540 1540 1538 1539
1485 1487 1490 1491 1494 1496 1498 1501 1502 1502 1504 1504 1505 1508 1508 1513 1516 1518 1519 1519 1522 1524 1529 1528 1528 1531 1534 1538 1539 1539 1539 1538 1539 1540 1545 1546 1547 1549 1550 1542 1543 1544 1549 1547 1546 1552 1555
1478 1482 1486 1489 1490 1492 1493 1495 1497 1497 1499 1500 1501 1505 1506 1512 1514 1516 1518 1519 1522 1524 1527 1529 1527 1530 1537 1538 1540 1539 1538 1540 1540 1540 1541 1545 1546 1547 1551 1547 1562 1550 1549 1551 1554 1557 1557
1471 1477 1482 1485 1487 1488 1490 1490 1492 1492 1494 1495 1499 1500 1501 1511 1514 1517 1519 1520 1523 1526 1529 1532 1530 1531 1533 1535 1539 1538 1540 1538 1536 1537 1539 1540 1543 1549 1554 1558 1548 1552 1553 1555 1557 1557 1555
1467 1472 1477 1481 1483 1485 1486 1488 1490 1489 1491 1491 1495 1496 1497 1502 1515 1516 1519 1522 1525 1528 1531 1531 1533 1532 1534 1537 1539 1541 1539 1536 1541 1536 1537 1540 1540 1548 1556 1555 1550 1556 1550 1551 1551 1558 1554
1462 1469 1473 1476 1477 1480 1485 1486 1487 1488 1489 1489 1492 1495 1497 1501 1514 1515 1518 1523 1524 1526 1528 1531 1533 1533 1533 1538 1539 1540 1540 1537 1542 1541 1540 1544 1544 1546 1545 1540 1547 1549 1550 1550 1566 1562 1552
1459 1465 1469 1472 1472 1477 1483 1485 1487 1487 1488 1488 1491 1494 1496 1502 1513 1516 1517 1524 1524 1524 1526 1530 1532 1533 1535 1541 1542 1546 1548 1543 1540 1541 1542 1542 1545 1554 1555 1554 1551 1549 1549 1552 1555 1551 1550
1457 1463 1466 1468 1470 1476 1479 1483 1485 1486 1487 1489 1488 1491 1495 1499 1519 1518 1519 1527 1528 1526 1525 1528 1533 1532 1535 1541 1545 1544 1542 1543 1548 1554 1546 1551 1549 1549 1549 1549 1550 1549 1550 1552 1552 1550 1547